Tracking 31027 objects as of 19-Jul-2025
HD Live streaming from Space Station
objects crossing your sky now

FENGYUN 1C DEB

Track FENGYUN 1C DEB now!
10-day predictions


NORAD ID: 31627
Int'l Code: 1999-025CAH
Perigee: 748.4 km
Apogee: 820.4 km
Inclination: 98.5 °
Period: 100.4 minutes
Semi major axis: 7155 km
RCS: 0.013 m2 (small)
Launch date: May 10, 1999
Source: People's Republic of China (PRC)
Launch site: Taiyaun Space Center, China (TSC)

Note: This is SATELLITE DEBRIS
Your satellite tracking list
FREGAT DEB
Track 1 satellite(s)




NASA's NSSDC Master Catalog

Two Line Element Set (TLE):
1 31627U 99025CAH 25188.88916185  .00001849  00000-0  66410-3 0  9996
2 31627  98.5443 238.5420 0050327 261.6232  97.9245 14.34342415941761
Source of the keplerian elements: AFSPC